Regional Weather Roundup
Issued by NWS

Home | Current Version | Previous Version | Text Only | Print | Product List | Glossary Off
Versions: 1 2 3 4 5 6 7 8 9 10 11 12 13 14 15 16 17 18 19 20 21 22 23 24 25 26 27 28 29 30 31 32 33 34 35 36 37 38 39 40 41 42 43 44 45 46 47 48 49 50

000
ASUS43 KIND 221309
RWRIN

WEATHER ROUNDUP FOR INDIANA
NATIONAL WEATHER SERVICE INDIANAPOLIS IN
800 AM EST MON DEC 22 2014

NOTE: "FAIR" INDICATES FEW OR NO CLOUDS BELOW 12,000 FEET WITH NO
SIGNIFICANT WEATHER AND/OR OBSTRUCTIONS TO VISIBILITY.

* - STATION DOES NOT REPORT WEATHER SUCH AS PRECIPITATION OR FOG.

+ - STATION NOT QUALITY CONTROLLED BY THE NATIONAL WEATHER SERVICE.
    USE DATA WITH CAUTION...ESPECIALLY DEWPOINT AND RELATIVE
    HUMIDITY OBSERVATIONS.

INZ001>003-010>013-019-020-221400-
NORTHWEST INDIANA

CITY           SKY/WX    TMP DP  RH WIND       PRES   REMARKS
GARY /AIRPORT/ CLOUDY    32  25  74 SE10      29.95F WCI  24
KNOX *+        CLOUDY    31  24  77 E8        29.97S WCI  23
LA PORTE +     CLOUDY    31  29  92 E6        29.98S FOG     WCI  26
MICHIGAN CITY+ CLOUDY    32  23  69 E5        29.98F WCI  27
MONTICELLO +   CLOUDY    31  28  88 E5        29.96R WCI  26
RENSSELAER +   CLOUDY    32  32 100 E6        29.95S FOG     WCI  26
VALPARAISO     CLOUDY    29  26  89 E6        29.97F WCI  23

$$

LMZ046-743>745-221400-
SOUTHERN LAKE MICHIGAN

STATION/POSITION TIME  TEMP WIND        PRES
                       AIR  DIR/SP/G
                 (UTC) (F)  (DEG/KT/KT) (MB)

$$

INZ004-005-014>016-021>024-221400-
NORTH CENTRAL INDIANA

CITY           SKY/WX    TMP DP  RH WIND       PRES   REMARKS
ELKHART        CLOUDY    28  23  80 E8        30.00F HAZE    WCI  20
GOSHEN         CLOUDY    28  24  85 E9        30.00F FOG     WCI  19
LOGANSPORT +   CLOUDY    30  27  86 E9        29.98R WCI  22
PERU/GRISSOM   CLOUDY    30  30 100 E8        29.97F WCI  22
ROCHESTER +    CLOUDY    32  30  93 E6        29.98F WCI  26
SOUTH BEND     CLOUDY    30  25  81 E13       29.99F WCI  20
WARSAW +       CLOUDY    28  27  93 E8        29.99F FOG     WCI  20

$$

INZ006>009-017-018-025>027-221400-
NORTHEAST INDIANA

CITY           SKY/WX    TMP DP  RH WIND       PRES   REMARKS
ANGOLA *+      CLEAR     25  21  86 E6        30.02F WCI  18
AUBURN +       PTCLDY    25  21  86 E6        30.03F FOG     WCI  18
FORT WAYNE     MOCLDY    25  22  88 E8        30.02F FOG     WCI  16
HUNTINGTON +   CLOUDY    27  25  92 E7        30.00S WCI  20

$$

INZ028-029-035-036-043>045-051>053-221400-
WEST CENTRAL INDIANA

CITY           SKY/WX    TMP DP  RH WIND       PRES   REMARKS
GREENCASTLE +  CLOUDY    32  27  80 SE8       29.94F WCI  25
LAFAYETTE      CLOUDY    32  28  85 E7        29.95S WCI  26
TERRE HAUTE    CLOUDY    35  29  78 SE7       29.92F WCI  29

$$

INZ030>032-037>040-046>048-054>057-064-065-221400-
CENTRAL INDIANA

CITY           SKY/WX    TMP DP  RH WIND       PRES   REMARKS
CP ATTERBURY + CLOUDY    32  30  93 MISG      29.98S
FRANKFORT +    CLOUDY    32  30  91 E10       29.96S WCI  24
INDIANAPOLIS   CLOUDY    32  28  85 E7        29.95F WCI  26
-EAGLE CREEK   CLOUDY    33  28  81 SE6       29.96F WCI  28
KOKOMO *+      CLOUDY    30  25  80 SE9       29.98R WCI  22
MARION +       CLOUDY    30  26  85 SE7       29.99S WCI  24
MT COMFORT *+  CLOUDY    34  25  69 SE7       29.98S WCI  28
SHELBYVILLE    CLOUDY    34  29  82 E8        29.97F WCI  27
ZIONSVILLE +   CLOUDY    32  27  82 SE7       29.97S WCI  26

$$

INZ033-034-041-042-049-050-058-059-221400-
EAST CENTRAL INDIANA

CITY           SKY/WX    TMP DP  RH WIND       PRES   REMARKS
MUNCIE         CLOUDY    33  27  78 SE8       29.99F WCI  26

$$

INZ060-061-067>069-081>083-085>088-221400-
SOUTHWEST INDIANA

CITY           SKY/WX    TMP DP  RH WIND       PRES   REMARKS
EVANSVILLE     CLOUDY    41  34  76 E3        29.92S
HUNTINGBURG *+ CLOUDY    39  34  81 SE10      29.93F
WASHINGTON +   CLOUDY    36  31  83 SE3       29.93S

$$

INZ062-063-066-070>080-084-089>092-221400-
SOUTH CENTRAL AND SOUTHEAST INDIANA

CITY           SKY/WX    TMP DP  RH WIND       PRES   REMARKS
BLOOMINGTON    CLOUDY    33  29  85 SE9       29.94F WCI  25

$$



USA.gov is the U.S. government's official web portal to all federal, state and local government web resources and services.